• In Uzbekistan
  • List of Countries
  • For 7 days
  • Water Temperature
  • Satellite Maps
  • Weather Map
  • Weather Widgets
  • user-avatar
    Login

    Hourly Weather Szerencs

    Today, 19 January, Friday

    Time Temperature Precipitation Wind Pressure Humidity
    00:00 0°C° 0.1 mm 5 mps 741 mmHg 75%
    01:00 0°C° 0 mm 4 mps 741 mmHg 83%
    02:00 0°C° 0.1 mm 4 mps 741 mmHg 85%
    03:00 0°C° 0.1 mm 4 mps 741 mmHg 86%
    04:00 0°C° 0.1 mm 5 mps 741 mmHg 87%
    05:00 0°C° 0 mm 5 mps 741 mmHg 87%
    06:00 0°C° 0 mm 4 mps 742 mmHg 87%
    07:00 -1°C° 0 mm 4 mps 742 mmHg 87%
    08:00 0°C° 0 mm 4 mps 743 mmHg 84%
    09:00 +1°C° 0 mm 4 mps 743 mmHg 81%
    10:00 +3°C° 0 mm 4 mps 744 mmHg 78%
    11:00 +3°C° 0 mm 4 mps 744 mmHg 76%
    12:00 +4°C° 0 mm 4 mps 744 mmHg 74%
    13:00 +4°C° 0 mm 4 mps 745 mmHg 72%
    14:00 +4°C° 0 mm 4 mps 745 mmHg 77%
    15:00 +3°C° 0 mm 4 mps 745 mmHg 81%
    16:00 +1°C° 0 mm 4 mps 745 mmHg 85%
    17:00 +2°C° 0 mm 3 mps 746 mmHg 87%
    18:00 +2°C° 0 mm 2 mps 746 mmHg 89%
    19:00 +1°C° 0 mm 2 mps 746 mmHg 91%
    20:00 +1°C° 0 mm 2 mps 747 mmHg 91%
    21:00 +2°C° 0 mm 1 mps 747 mmHg 92%
    22:00 +2°C° 0 mm 1 mps 747 mmHg 92%
    23:00 +2°C° 0 mm 1 mps 747 mmHg 92%

    Tomorrow, 20 January, Saturday

    Time Temperature Precipitation Wind Pressure Humidity
    00:00 +1°C° 0 mm 1 mps 748 mmHg 91%
    01:00 +1°C° 0 mm 1 mps 748 mmHg 91%
    02:00 +1°C° 0 mm 1 mps 748 mmHg 91%
    03:00 0°C° 0 mm 1 mps 747 mmHg 90%
    04:00 0°C° 0 mm 1 mps 747 mmHg 90%
    05:00 0°C° 0 mm 1 mps 748 mmHg 90%
    06:00 0°C° 0 mm 1 mps 748 mmHg 89%
    07:00 0°C° 0 mm 1 mps 748 mmHg 89%
    08:00 +1°C° 0 mm 1 mps 748 mmHg 85%
    09:00 +1°C° 0 mm 0 mps 748 mmHg 81%
    10:00 +2°C° 0 mm 0 mps 748 mmHg 77%
    11:00 +3°C° 0 mm 1 mps 748 mmHg 75%
    12:00 +4°C° 0 mm 1 mps 747 mmHg 74%
    13:00 +3°C° 0 mm 2 mps 747 mmHg 72%
    14:00 +3°C° 0 mm 2 mps 747 mmHg 77%
    15:00 +2°C° 0 mm 2 mps 746 mmHg 81%
    16:00 +1°C° 0 mm 2 mps 746 mmHg 85%
    17:00 +1°C° 0 mm 2 mps 746 mmHg 87%
    18:00 -1°C° 0 mm 2 mps 746 mmHg 89%
    19:00 -1°C° 0 mm 2 mps 746 mmHg 91%
    20:00 -1°C° 0 mm 2 mps 746 mmHg 90%
    21:00 -1°C° 0 mm 2 mps 746 mmHg 90%
    22:00 -1°C° 0 mm 2 mps 746 mmHg 89%
    23:00 -1°C° 0 mm 2 mps 746 mmHg 90%

    Day after tomorrow, 21 January, Sunday

    Time Temperature Precipitation Wind Pressure Humidity
    00:00 -1°C° 0 mm 2 mps 746 mmHg 91%
    01:00 -1°C° 0 mm 2 mps 746 mmHg 92%
    02:00 -1°C° 0 mm 2 mps 745 mmHg 92%
    03:00 -2°C° 0 mm 2 mps 745 mmHg 92%
    04:00 -2°C° 0 mm 2 mps 745 mmHg 92%
    05:00 -2°C° 0 mm 2 mps 745 mmHg 92%
    06:00 -2°C° 0 mm 2 mps 745 mmHg 91%
    07:00 0°C° 0 mm 1 mps 745 mmHg 91%
    08:00 -1°C° 0.1 mm 2 mps 745 mmHg 89%
    09:00 -1°C° 0.1 mm 2 mps 745 mmHg 86%
    10:00 0°C° 0.1 mm 3 mps 745 mmHg 84%
    11:00 +1°C° 0.5 mm 2 mps 744 mmHg 83%
    12:00 +1°C° 0.5 mm 2 mps 744 mmHg 83%
    13:00 +1°C° 0.5 mm 2 mps 744 mmHg 83%
    14:00 +1°C° 0.4 mm 2 mps 744 mmHg 85%
    15:00 +2°C° 0.4 mm 1 mps 744 mmHg 88%
    16:00 +1°C° 0.4 mm 1 mps 744 mmHg 90%
    17:00 -1°C° 0.2 mm 2 mps 745 mmHg 91%
    18:00 -1°C° 0.2 mm 3 mps 745 mmHg 91%
    19:00 -1°C° 0.2 mm 3 mps 745 mmHg 91%
    20:00 -2°C° 0 mm 4 mps 746 mmHg 88%
    21:00 -2°C° 0 mm 4 mps 746 mmHg 85%
    22:00 -2°C° 0 mm 4 mps 747 mmHg 83%
    23:00 -4°C° 0 mm 5 mps 747 mmHg 81%

    22 January, Monday

    Time Temperature Precipitation Wind Pressure Humidity
    00:00 -4°C° 0 mm 5 mps 748 mmHg 79%
    01:00 -4°C° 0 mm 5 mps 748 mmHg 78%
    02:00 -4°C° 0 mm 5 mps 749 mmHg 78%
    03:00 -4°C° 0 mm 4 mps 749 mmHg 78%
    04:00 -4°C° 0 mm 4 mps 750 mmHg 79%
    05:00 -4°C° 0 mm 4 mps 750 mmHg 79%
    06:00 -4°C° 0 mm 4 mps 751 mmHg 80%
    07:00 -5°C° 0 mm 3 mps 751 mmHg 81%
    08:00 -4°C° 0 mm 4 mps 752 mmHg 77%
    09:00 -3°C° 0 mm 4 mps 752 mmHg 74%
    10:00 -2°C° 0 mm 4 mps 753 mmHg 70%
    11:00 -1°C° 0 mm 4 mps 753 mmHg 69%
    12:00 0°C° 0 mm 3 mps 753 mmHg 68%
    13:00 0°C° 0 mm 3 mps 753 mmHg 67%
    14:00 +1°C° 0 mm 2 mps 753 mmHg 70%
    15:00 -1°C° 0 mm 2 mps 753 mmHg 74%
    16:00 0°C° 0 mm 1 mps 753 mmHg 77%
    17:00 0°C° 0 mm 1 mps 753 mmHg 78%
    18:00 -1°C° 0 mm 1 mps 754 mmHg 80%
    19:00 -2°C° 0 mm 0 mps 754 mmHg 81%
    20:00 -2°C° 0 mm 0 mps 754 mmHg 82%
    21:00 -2°C° 0 mm 0 mps 754 mmHg 82%
    22:00 -2°C° 0 mm 0 mps 754 mmHg 83%
    23:00 -2°C° 0 mm 0 mps 754 mmHg 83%

    23 January, Tuesday

    Time Temperature Precipitation Wind Pressure Humidity
    00:00 -2°C° 0 mm 0 mps 754 mmHg 84%
    01:00 -1°C° 0 mm 1 mps 754 mmHg 84%
    02:00 -2°C° 0 mm 1 mps 754 mmHg 85%
    03:00 -2°C° 0 mm 1 mps 754 mmHg 86%
    04:00 -2°C° 0 mm 1 mps 754 mmHg 88%
    05:00 -1°C° 0 mm 1 mps 755 mmHg 87%
    06:00 -1°C° 0 mm 1 mps 755 mmHg 87%
    07:00 -1°C° 0 mm 1 mps 755 mmHg 87%
    08:00 -1°C° 0 mm 1 mps 756 mmHg 85%
    09:00 0°C° 0 mm 1 mps 756 mmHg 83%
    10:00 +1°C° 0 mm 1 mps 757 mmHg 81%
    11:00 +1°C° 0.1 mm 1 mps 757 mmHg 80%
    12:00 +1°C° 0.1 mm 1 mps 757 mmHg 79%
    13:00 +2°C° 0.1 mm 1 mps 758 mmHg 78%
    14:00 +1°C° 0 mm 1 mps 758 mmHg 80%
    15:00 +1°C° 0 mm 1 mps 758 mmHg 83%
    16:00 0°C° 0 mm 1 mps 758 mmHg 85%
    17:00 0°C° 0 mm 1 mps 759 mmHg 86%
    18:00 0°C° 0 mm 1 mps 759 mmHg 87%
    19:00 -1°C° 0 mm 0 mps 760 mmHg 89%
    20:00 0°C° 0 mm 1 mps 760 mmHg 89%
    21:00 -1°C° 0 mm 1 mps 761 mmHg 89%
    22:00 -1°C° 0 mm 1 mps 761 mmHg 90%
    23:00 -1°C° 0 mm 1 mps 761 mmHg 90%

    24 January, Wednesday

    Time Temperature Precipitation Wind Pressure Humidity
    00:00 -1°C° 0 mm 1 mps 762 mmHg 90%
    01:00 -1°C° 0 mm 1 mps 762 mmHg 91%
    02:00 -1°C° 0 mm 1 mps 762 mmHg 91%
    03:00 -1°C° 0 mm 1 mps 762 mmHg 91%
    04:00 -1°C° 0 mm 1 mps 762 mmHg 91%
    05:00 0°C° 0 mm 1 mps 762 mmHg 91%
    06:00 0°C° 0 mm 1 mps 762 mmHg 91%
    07:00 0°C° 0 mm 1 mps 763 mmHg 90%
    08:00 0°C° 0 mm 1 mps 763 mmHg 88%
    09:00 +1°C° 0 mm 1 mps 763 mmHg 86%
    10:00 +1°C° 0 mm 1 mps 763 mmHg 85%
    11:00 +2°C° 0 mm 1 mps 763 mmHg 84%
    12:00 +2°C° 0 mm 1 mps 763 mmHg 83%
    13:00 +2°C° 0 mm 2 mps 763 mmHg 82%
    14:00 +2°C° 0 mm 1 mps 763 mmHg 85%
    15:00 +2°C° 0 mm 1 mps 763 mmHg 87%
    16:00 +2°C° 0 mm 1 mps 763 mmHg 89%
    17:00 +1°C° 0 mm 1 mps 763 mmHg 90%
    18:00 +1°C° 0 mm 1 mps 764 mmHg 91%
    19:00 +1°C° 0 mm 1 mps 764 mmHg 92%
    20:00 +1°C° 0 mm 1 mps 764 mmHg 92%
    21:00 +1°C° 0 mm 1 mps 764 mmHg 92%
    22:00 +1°C° 0 mm 1 mps 764 mmHg 92%
    23:00 +1°C° 0 mm 1 mps 764 mmHg 92%
    Show more